CLUSTER II-FM8 (TANGO)

Last updated on Aug. 11, 2020, 5:37 a.m. UTC

1 26464U 00045B   20225.88167373 -.00000025  00000-0  00000-0 0  9993
2 26464 132.0144 342.0632 4459650 184.7107 359.4023  0.44220116 10849
UTC
Height (km)
Latitude
Longitude
Inclination
Orbital Period
UTC large
Height (km)
Speed (km/s)
/
Latitude / Longitude
Inclination (degrees)
Orbital Period (minutes)
Azimuth
Elevation
Range (km)
Doppler Factor
iOS Compass Heading
iOS Angle

Next 30 passes for location: Hong Kong

Rise time Rise Azimuth (degrees) Set time Set Azimuth (degrees) Duration Max altitude (degrees)

No matching passes for this satellites